Regional Weather Roundup
Issued by NWS

Home | Current Version | Previous Version | Text Only | Print | Product List | Glossary On
Versions: 1 2 3 4 5 6 7 8 9 10 11 12 13 14 15 16 17 18 19 20 21 22 23 24 25 26 27
000
ASUS42 KTBW 240617
RWRFL
FLORIDA REGIONAL WEATHER ROUNDUP
NATIONAL WEATHER SERVICE TAMPA BAY RUSKIN FL
200 AM EDT WED MAY 24 2017

NOTE: "FAIR" INDICATES FEW OR NO CLOUDS BELOW 12,000 FEET WITH NO
SIGNIFICANT WEATHER AND/OR OBSTRUCTIONS TO VISIBILITY.

FLZ001>010-012>015-112-114-115-240700-
PANHANDLE FLORIDA

CITY           SKY/WX    TMP DP  RH WIND       PRES   REMARKS
PENSACOLA      CLEAR     76  71  85 SW8       29.70F
PENSACOLA NAS  MOCLDY    77  72  84 SW10      29.70F
MILTON NAS     MOCLDY    73  73 100 SW6       29.70
CRESTVIEW      CLEAR     72  70  93 S5        29.72F
DUKE FIELD     FAIR      74  70  88 S7        29.70F
VALPARAISO     MOCLDY    76  71  84 SW9       29.71S
MARY ESTHER    DRIZZLE   76  72  87 SW14G20   29.70F
TRI COUNTY     LGT RAIN  73  72  96 S5        29.72
PANAMA CITY    CLOUDY    77  71  82 S10       29.72S
TYNDALL AFB    MOCLDY    77  70  78 SW18      29.73F
APALACHICOLA   CLOUDY    77  74  90 SW15      29.75S

STATION/POSITION SKY/WX   TEMP    WIND        PRES    WAVE   SWELL
                          AIR SEA DIR/SP/G            HT/PER HT/PER
                          (F)     (DEG/KT/KT) (MB)    (FT/S) (FT/S)
30.1N   87.6W              77 79  240/ 17/ 19 1005.7F   4/ 6
29.2N   88.2W              78 78  230/ 14/ 17 1006.9F   4/ 5
28.8N   86.0W              77 77  210/ 19/ 23 1007.4R   6/ 6
PANAMA CITY BEAC           78 80  220/ 20/ 22 1006.9F
TOWER C                    76     250/ 19/ 20 1008.2F
28.5N   84.5W              77 78  210/ 19/ 23 1007.4    5/ 5

$$
FLZ011-016>038-118-127-128-134-139-239-240700-
NORTH FLORIDA

CITY           SKY/WX    TMP DP  RH WIND       PRES   REMARKS
MARIANNA       MOCLDY    73  71  93 SW8       29.71F
TALLAHASSEE    CLEAR     74  71  91 SW8       29.73F
PERRY          MOCLDY    77  70  78 SW13G24   29.77S
CROSS CITY     CLOUDY    77  70  78 W9        29.77F
LAKE CITY      FAIR      72  72 100 S8        29.77S
GAINESVILLE    CLOUDY    72  71  97 SW3       29.79F
WILLISTON      CLEAR     75  73  94 CALM      29.79F
PALATKA        MOCLDY    73  73 100 SW3       29.80F
MAYPORT NAS    CLOUDY    72  71  97 S7        29.80F THUNDER
JACKSONVILLE   CLOUDY    71  70  96 S9        29.78S
JAX NAS        CLOUDY    74  71  91 S6        29.80S
FERNANDINA BEA MOCLDY    73  70  88 SW15      29.77S
ST AUGUSTINE   LGT RAIN  73  70  90 W5        29.81F
PALM COAST     MOCLDY    77  70  80 SW8       29.80F

STATION/POSITION SKY/WX   TEMP    WIND        PRES    WAVE   SWELL
                          AIR SEA DIR/SP/G            HT/PER HT/PER
                          (F)     (DEG/KT/KT) (MB)    (FT/S) (FT/S)
SHELL POINT      NOT AVBL
KEATON BEACH               79     230/ 22/ 25 1007.5F
CEDAR KEY                  80     240/ 11/ 16 1008.5F
FERNANDINA                 72 80  170/  8/ 13 1009.1F
30.7N   81.3W                 79                N/A     3/ 6
MAYPORT                    71 80  210/  5/  7 1009.4R
31.4N   80.9W              77 78  200/ 19/ 23 1006.7F   6/ 5
ST AUGUSTINE               75 78  240/  7/  9 1009.9R

$$
FLZ040-043>046-052-053-057-058-063-144-240700-
INTERIOR CENTRAL FLORIDA

CITY           SKY/WX    TMP DP  RH WIND       PRES   REMARKS
OCALA          MOCLDY    76  74  93 S8        29.80F
THE VILLAGES     N/A     79  75  89 MISG      29.71F
LEESBURG       MOCLDY    79  74  84 SW10      29.82F
SANFORD        CLOUDY    79  71  76 S10       29.82F
ORLANDO EXEC   CLEAR     78  73  84 S9        29.83F
ORLANDO INTL   CLOUDY    74  73  97 S9        29.84F
KISSIMMEE      CLOUDY    77  73  87 SW7       29.85F
WINTER HAVEN   CLOUDY    77  72  84 SW8       29.86F
LAKELAND       CLOUDY    77  73  88 SW9       29.85S
BARTOW         FAIR      75  75 100 S9        29.85F
OKEECHOBEE     CLEAR     77  72  83 SW8       29.88F

$$
FLZ041-047-054-059-064-141-147-240700-
EAST CENTRAL FLORIDA

CITY           SKY/WX    TMP DP  RH WIND       PRES   REMARKS
DAYTONA BEACH  CLOUDY    75  71  87 S5        29.81F
DELAND         MOCLDY    77  72  83 S12       29.81F
CAPE CANAVERAL CLOUDY    78  71  78 SW10      29.83F
PATRICK AFB    MOCLDY    78  72  79 SW12      29.84F
MELBOURNE      CLOUDY    79  71  76 S10       29.85F
VERO BEACH     CLOUDY    77  72  84 S6        29.87F
FT PIERCE      CLOUDY    79  73  82 S6        29.87F
STUART         MOCLDY    77  75  94 S6        29.89F

STATION/POSITION SKY/WX   TEMP    WIND        PRES    WAVE   SWELL
                          AIR SEA DIR/SP/G            HT/PER HT/PER
                          (F)     (DEG/KT/KT) (MB)    (FT/S) (FT/S)
28.5N   80.2W              79 78  210/ 12/ 16 1011.6F   4/ 6   2/ 8
28.9N   78.5W              77 79  190/ 19/ 27 1011.0F   6/ 7
TRIDENT PIER               79 82  190/ 11/ 17 1012.0F
28.4N   80.5W                 78                N/A     3/ 6
27.5N   80.2W                 74                N/A     2/ 4

$$
FLZ050-056-061-142-242-148-248-149-249-151-251-155-255-
160-260-240700-
WEST CENTRAL FLORIDA

CITY           SKY/WX    TMP DP  RH WIND       PRES   REMARKS
CRYSTAL RIVER  MOCLDY    79  73  83 S7        29.80S
INVERNESS      FAIR      77  75  94 S8        29.81F
BROOKSVILLE    MOCLDY    79  74  84 S9        29.83F
CLEARWATER AIR CLOUDY    79  75  89 SW9G16    29.83F
ST PETE CLEARW CLOUDY    81  74  79 SW16      29.83F
TAMPA INTL     CLOUDY    82  74  76 SW15      29.83F
TAMPA EXEC     CLOUDY    82  73  74 SW13G21   29.84F
PLANT CITY     CLOUDY    79  75  89 SW6       29.86F
MACDILL AFB    CLOUDY    81  77  89 SW20      29.83F
PETER O KNIGHT CLOUDY    82  79  89 SW17G24   29.84F
ST PETERSBURG  CLOUDY    78  75  90 SW14G21   29.81F
SARASOTA       CLOUDY    80  75  84 SW18G24   29.83F
VENICE         FAIR      81  77  89 S15G22    29.87S

STATION/POSITION SKY/WX   TEMP    WIND        PRES    WAVE   SWELL
                          AIR SEA DIR/SP/G            HT/PER HT/PER
                          (F)     (DEG/KT/KT) (MB)    (FT/S) (FT/S)
27.3N   84.2W                 78                N/A     3/ 6
CLEARWATER BEACH           81 83  200/ 23/ 26 1010.0F
MIDDLE TAMPA BAY           80     230/ 19/ 23 1010.7F
VENICE                     81 84  190/ 17/ 19 1011.2F

$$
FLZ066-069-070-075>078-162-262-165-265-240700-
SOUTHWEST FLORIDA AND KEYS

CITY           SKY/WX    TMP DP  RH WIND       PRES   REMARKS
PUNTA GORDA    CLEAR     77  73  87 S8        29.88F
FT MYERS       PTCLDY    80  74  81 S7        29.87F
SOUTHWEST INTL PTCLDY    78  72  81 S7        29.88F
NAPLES         PTCLDY    82  74  76 S7        29.88F
MARCO ISLAND   CLOUDY    81  73  78 S8        29.89F
IMMOKALEE      FAIR      75  73  94 S6        29.90F
MARATHON       MOCLDY    83  79  88 S10       29.90F
KEY WEST NAS   PTCLDY    81  77  88 S12       29.91F
KEY WEST INTL  PTCLDY    82  77  84 S10       29.91F

STATION/POSITION SKY/WX   TEMP    WIND        PRES    WAVE   SWELL
                          AIR SEA DIR/SP/G            HT/PER HT/PER
                          (F)     (DEG/KT/KT) (MB)    (FT/S) (FT/S)
NAPLES                        84  190/ 14/ 18 1011.9F
DRY TORTUGAS               82     170/ 14/ 16 1012.4R
SAND KEY                   81     170/ 12/ 14 1013.4F
LONG KEY                   81 84  170/ 13/ 14 1013.4F
MOLASSES REEF              81 81  160/ 15/ 17 1013.7F

$$
FLZ067-068-071>074-168-172>174-240700-
SOUTHEAST FLORIDA

CITY           SKY/WX    TMP DP  RH WIND       PRES   REMARKS
W PALM BEACH   PTCLDY    77  72  84 S7        29.90F
FT LAUDER-EXEC PTCLDY    82  72  71 S6        29.90F
FT LAUDERDALE  PTCLDY    81  74  79 S9        29.89F
POMPANO BEACH  PTCLDY    81  74  79 S9        29.90F
PEMBROKE PINES MOCLDY    81  73  76 S9        29.92F
OPA LOCKA      MOCLDY    82  76  81 S13       29.91F
MIAMI          CLOUDY    81  74  79 S9        29.91F
WEST KENDALL   LGT RAIN  80  75  84 S5        29.91F
HOMESTEAD      PTCLDY    80  76  90 S9        29.90F

STATION/POSITION SKY/WX   TEMP    WIND        PRES    WAVE   SWELL
                          AIR SEA DIR/SP/G            HT/PER HT/PER
                          (F)     (DEG/KT/KT) (MB)    (FT/S) (FT/S)
PORT EVERGLADES            81     180/  8/ 11 1012.7F
VIRGINIA KEY               81 84  150/ 10/ 15 1012.3F
LAKE WORTH                 80 81              1013.2F
FOWEY ROCKS                81 80  160/ 20/ 21 1014.0F
SETTLEMENT POINT           80     190/ 14/ 17 1012.6F

$$





USA.gov is the U.S. government's official web portal to all federal, state and local government web resources and services.